Regional Weather Roundup
Issued by NWS

Home | Current Version | Previous Version | Text Only | Print | Product List | Glossary On
Versions: 1 2 3 4 5 6 7 8 9 10 11 12 13 14 15 16 17 18 19 20 21 22 23 24 25 26 27 28 29 30 31 32 33 34 35 36 37 38 39 40 41 42 43 44 45 46 47 48 49 50
000
ASUS43 KDTX 171201
RWRMI
MICHIGAN HOURLY REGIONAL WEATHER ROUNDUP
NATIONAL WEATHER SERVICE DETROIT/PONTIAC MI
700 AM EST SUN DEC 17 2017

NOTE: "FAIR" INDICATES FEW OR NO CLOUDS BELOW 12,000 FEET WITH NO
SIGNIFICANT WEATHER AND/OR OBSTRUCTION TO VISIBILITY.

MIZ047>049-052>055-059>063-066>070-074>076-081>083-171300-
SOUTHEAST LOWER MICHIGAN

CITY           SKY/WX    TMP DP  RH WIND       PRES   REMARKS
ADRIAN         CLOUDY    25  22  88 E10       30.17  WCI  15
6HR MIN TEMP:  24; 6HR MAX TEMP:  26;

ALMA           CLOUDY    24  22  91 E8        30.21S WCI  15
6HR MIN TEMP:  22; 6HR MAX TEMP:  24;

ANN ARBOR      CLOUDY    25  20  81 NE6       30.18S WCI  18
BAD AXE        CLOUDY    24  20  86 CALM      30.25R
6HR MIN TEMP:  23; 6HR MAX TEMP:  24;

CARO           CLOUDY    25  21  84 E8        30.22R WCI  16
DETROIT CITY   CLOUDY    27  23  85 NE7       30.22S WCI  19
6HR MIN TEMP:  22; 6HR MAX TEMP:  27;

DETROIT        CLOUDY    30  23  75 NE7       30.20F WCI  23
6HR MIN TEMP:  25; 6HR MAX TEMP:  30;

FLINT          CLOUDY    24  18  77 E6        30.22R WCI  17
6HR MIN TEMP:  15; 6HR MAX TEMP:  24;

GROSSE ILE     CLOUDY    27  24  87 NE9       30.19S WCI  18
6HR MIN TEMP:  23; 6HR MAX TEMP:  27;

HILLSDALE      FOG       27  23  86 E7        30.12F VSB 3/4 WCI  19
HOWELL         CLOUDY    25  22  87 E8        30.17S WCI  16
6HR MIN TEMP:  18; 6HR MAX TEMP:  25;


CITY           SKY/WX    TMP DP  RH WIND       PRES   REMARKS
JACKSON        CLOUDY    26  22  84 E8        30.15S FOG     WCI  18
6HR MIN TEMP:  25; 6HR MAX TEMP:  26;

LAMBERTVILLE   CLOUDY    27  23  86 CALM      30.17S
6HR MIN TEMP:  26; 6HR MAX TEMP:  27;

LANSING        CLOUDY    22  19  89 E8        30.18R WCI  12
6HR MIN TEMP:  15; 6HR MAX TEMP:  22;

LAPEER         CLOUDY    25  20  80 E5        30.22R WCI  19
6HR MIN TEMP:  22; 6HR MAX TEMP:  25;

MASON          CLOUDY    23  18  79 E3        30.16S
6HR MIN TEMP:  19; 6HR MAX TEMP:  23;

MONROE         CLOUDY    27  23  83 NE8       30.17S WCI  19
6HR MIN TEMP:  23; 6HR MAX TEMP:  27;

MT. CLEMENS    CLOUDY    25  22  86 E9        30.21R WCI  16
6HR MIN TEMP:  23; 6HR MAX TEMP:  25;

PONTIAC        CLOUDY    24  17  74 E9        30.19R WCI  14
6HR MIN TEMP:  18; 6HR MAX TEMP:  24;

PORT HOPE        N/A     25  21  85 E12       30.24R WCI  14
6HR MIN TEMP:  25; 6HR MAX TEMP:  26;

PORT HURON     CLOUDY    23  16  74 NE6       30.25R WCI  16
TRI CITIES     CLOUDY    24  21  88 E9        30.23R WCI  14
6HR MIN TEMP:  23; 6HR MAX TEMP:  24;

MIDLAND        CLOUDY    23  19  86 NE3       30.23R
6HR MIN TEMP:  21; 6HR MAX TEMP:  23;

TROY           CLOUDY    25  19  77 NE8       30.23S WCI  17
SAGINAW HB     CLOUDY    25  23  93 E6        30.23R WCI  18
$$
MIZ043>046-050>051-056>058-064>065-071>073-077>080-171300-
SOUTHWEST LOWER MICHIGAN

CITY           SKY/WX    TMP DP  RH WIND       PRES   REMARKS
BATTLE CREEK   FOG       27  26  96 SE8       30.13S VSB 1   WCI  19
6HR MIN TEMP:  23; 6HR MAX TEMP:  27;

BENTON HARBOR  PTCLDY    26  22  84 E6        30.10R FOG     WCI  19
6HR MIN TEMP:  25; 6HR MAX TEMP:  29;

BIG RAPIDS     CLOUDY    21  18  88 E7        30.18R WCI  12
6HR MIN TEMP:  21; 6HR MAX TEMP:  22;

COLDWATER      CLOUDY    27  27 100 E7        30.13S FOG     WCI  20
6HR MIN TEMP:  25; 6HR MAX TEMP:  28;

HOLLAND        CLOUDY    23  21  92 E13       30.14S WCI  11
6HR MIN TEMP:  22; 6HR MAX TEMP:  24;

GRAND RAPIDS   CLOUDY    22  19  89 E13       30.15S WCI  10
6HR MIN TEMP:  21; 6HR MAX TEMP:  22;

IONIA          CLOUDY    22  20  89 E9        30.16F WCI  12
6HR MIN TEMP:  21; 6HR MAX TEMP:  22;

KALAMAZOO      FOG       27  25  92 E6        30.12S VSB 1   WCI  20
6HR MIN TEMP:  24; 6HR MAX TEMP:  27;

LUDINGTON      CLOUDY    24  20  85 E8        30.18R WCI  15
6HR MIN TEMP:  24; 6HR MAX TEMP:  25;

MARSHALL       CLOUDY    26  26  98 E8        30.13S FOG     WCI  18
6HR MIN TEMP:  23; 6HR MAX TEMP:  26;

MOUNT PLEASANT CLOUDY    22  18  84 NE6       30.21R WCI  15
6HR MIN TEMP:  22; 6HR MAX TEMP:  22;

MUSKEGON       CLOUDY    23  18  81 E13       30.15S WCI  11
6HR MIN TEMP:  22; 6HR MAX TEMP:  24;

SOUTH HAVEN    CLOUDY    26  22  87 E8        30.10S FOG     WCI  17
$$
MIZ016>042-171300-
NORTHERN LOWER MICHIGAN

CITY           SKY/WX    TMP DP  RH WIND       PRES   REMARKS
ALPENA         CLOUDY    18  15  88 CALM      30.26R
6HR MIN TEMP:  15; 6HR MAX TEMP:  18;

BEAVER ISLAND  CLOUDY    21  16  81 E8        30.24R WCI  11
6HR MIN TEMP:  17; 6HR MAX TEMP:  21;

BELLAIRE       CLOUDY    18  17  95 CALM      30.26R
6HR MIN TEMP:  15; 6HR MAX TEMP:  18;

CADILLAC       CLOUDY    17  17  96 E5        30.16R FOG     WCI  10
CHARLEVOIX     CLOUDY    14  13  95 SE5       30.27R WCI   6
6HR MIN TEMP:  13; 6HR MAX TEMP:  16;

FRANKFORT      CLOUDY    21  18  86 E8        30.20S WCI  11
GAYLORD        CLOUDY    13   9  84 CALM      30.20R
6HR MIN TEMP:  10; 6HR MAX TEMP:  14;

GRAYLING       CLOUDY    15  11  85 E3        30.21R
6HR MIN TEMP:  13; 6HR MAX TEMP:  15;

HARBOR SPRINGS CLOUDY    11   7  85 NE6       30.24R WCI   1
HOUGHTON LAKE  CLOUDY    17  15  92 E7        30.20R FOG     WCI   8
6HR MIN TEMP:  14; 6HR MAX TEMP:  17;

MANISTEE       CLOUDY    23  19  85 E8        30.19R WCI  14
OSCODA         CLOUDY    19  15  81 NW3       30.25R
6HR MIN TEMP:  17; 6HR MAX TEMP:  19;

PELLSTON       CLOUDY    -7 -11  83 CALM      30.26S
6HR MIN TEMP:  -8; 6HR MAX TEMP:   1;

ROGERS CITY    CLOUDY    19  15  86 CALM      30.27S
TRAVERSE CITY  CLOUDY    19  15  84 SE5       30.23R WCI  12
6HR MIN TEMP:  18; 6HR MAX TEMP:  19;

$$
MIZ007>008-015-171300-
EASTERN UPPER MICHIGAN

CITY           SKY/WX    TMP DP  RH WIND       PRES   REMARKS
KINROSS        FLURRIES   2   0  91 E8        30.27S WCI -12
6HR MIN TEMP:  -1; 6HR MAX TEMP:   2;

MACKINAC ISLAN CLOUDY    15  11  85 NE9       30.25S FOG     WCI   3
6HR MIN TEMP:  13; 6HR MAX TEMP:  15;

NEWBERRY       CLOUDY     4   3  97 CALM      30.22S
6HR MIN TEMP:  -2; 6HR MAX TEMP:   4;

S. S. MARIE    CLOUDY     1  -3  83 E6        30.28S WCI -10
6HR MIN TEMP:  -1; 6HR MAX TEMP:   1;

MUNISING         N/A     12   9  87 SW6       30.20F WCI   3
6HR MIN TEMP:  11; 6HR MAX TEMP:  12;

$$
MIZ004>006-011>014-085-171300-
CENTRAL UPPER MICHIGAN

CITY           SKY/WX    TMP DP  RH WIND       PRES   REMARKS
MANISTIQUE     CLOUDY    12   7  81 N3        30.22R
6HR MIN TEMP:  10; 6HR MAX TEMP:  12;

ESCANABA       CLOUDY    18  15  88 NE5       30.22R WCI  11
6HR MIN TEMP:  16; 6HR MAX TEMP:  18;

MENOMINEE      CLOUDY    21  18  88 N7        30.21R WCI  12
6HR MIN TEMP:  21; 6HR MAX TEMP:  28;

SAWYER-GWINN   CLOUDY    12  10  92 S5        30.15F WCI   4
$$
MIZ001>003-009>011-084-171300-
WESTERN UPPER MICHIGAN

CITY           SKY/WX    TMP DP  RH WIND       PRES   REMARKS
IRON MOUNTAIN  CLOUDY    17  13  84 S3        30.16R
6HR MIN TEMP:  16; 6HR MAX TEMP:  18;

HOUGHTON       CLOUDY    20  15  81 S8        30.12S WCI  10
6HR MIN TEMP:  20; 6HR MAX TEMP:  21;

COPPER HARBOR    N/A     25  20  81 SW10      30.15R WCI  15
6HR MIN TEMP:  23; 6HR MAX TEMP:  25;

IRONWOOD       CLOUDY    22  20  92 CALM      30.10F
6HR MIN TEMP:  21; 6HR MAX TEMP:  22;

$$

ABBREVIATIONS USED IN REMARKS
   TC - TEMPERATURE IN CELSIUS
  WCI - WIND CHILL INDEX
   HX - HEAT INDEX
  VSB - VISIBILITY





USA.gov is the U.S. government's official web portal to all federal, state and local government web resources and services.